Benutzungsordnung PDF Drucken E-Mail

 

 

Die Benutzungsordnung für den Verkehrslandeplatz Uetersen/Heist wurde am 01.01./10.01.2006 neu gefasst und von der zuständigen Landesbehörde in Schleswig-Holstein genehmigt und in Kraft gesetzt. Die Benutzungsordnung regelt die Rechte und Pflichten zwischen den Benutzern und dem Halter des Verkehrslandeplatzes. Die öffentlichen Vorschriften für die Benutzung des Verkehrslandeplatzes bleiben unberührt.

Für Fahrzeuge gilt die Straßenbenutzungsordnung.

 

Sie können die Benutzungsordnung hier als PDF-Datei herunterladen.

 

 

(Zum Öffnen benötigen Sie den Adobe Acrobat Reader, den Sie kostenfrei unter http://get.adobe.com/de/reader/ herunterladen können)

 

Zufallsbild

Aktuelle Termine

Mo Di Mi Do Fr Sa So
29 30 31 1 2 3 4
5 6 7 8 9 10 11
12 13 14 15 16 17 18
19 20 21 22 23 24 25
26 27 28 29 30 1 2

Pilotenwetter

[source: ADDS]
METAR
EDDH 221150Z 13013KT CAVOK 19/17 Q1009 NOSIG =
TAF
TAF EDDH 221100Z 2212/2318 08010KT CAVOK BECMG 2212/2215 23012KT TEMPO 2212/2221 27015G25KT PROB30 TEMPO 2212/2221 27020G45KT 2500 TSRAGR BKN020CB BECMG 2218/2221 26007KT BECMG 2222/2224 BKN012 TEMPO 2300/2308 BKN007 BECMG 2305/2308 28012KT BECMG 2308/2311 BKN025 TEMPO 2308/2316 28015G25KT =